Weather in Bolshoy

Russia / Volgograd Oblast     50°13′13″N   43°26′15″E
temp.,
°C
wind,
m/s
gust,
m/s
humid.,
%
clouds,
%
prec.,
mm/h
press.,
hPa
HPBL,
m
5 august, thu
thu500:00+19n345926 0.0 101760
03:00+18n3465100 0.0 101750
06:00+19ne23645 0.0 101892
09:00+25ne2239100 0.0 1017933
12:00+28n2228100 0.0 10172360
15:00+30nnw43250 0.0 10162703
18:00+28n4328100 0.0 10151448
21:00+23ne3339100 0.0 101542
6 august, fri
fri600:00+21ene3545100 0.0 101672
03:00+19e33495 0.0 101536
06:00+20e36475 0.0 1016149
09:00+28ese44295 0.0 1015867
12:00+32ese43230 0.0 10142218
15:00+33ese43205 0.0 10132731
18:00+32se45205 0.0 10121888
21:00+24ese410335 0.0 1013159
7 august, sat
sat700:00+22e413376 0.0 1013262
03:00+21ese4133837 0.0 1013283
06:00+21ese5133476 0.0 1013329
09:00+29ese6823100 0.0 1013831
12:00+33ese5618100 0.0 10121828
15:00+35ese5514100 0.0 10112252
18:00+32ese3517100 0.0 1011137
21:00+26e342382 0.0 101143
8 august, sun
sun800:00+24e482799 0.0 1011124
03:00+22e482998 0.0 1011120
06:00+23e3930100 0.0 1012189
09:00+30ese5722100 0.0 1012418
12:00+36se7816100 0.0 10111469
15:00+37e5915100 0.0 10103879
18:00+33e81220100 0.0 1010619
21:00+30nne61225100 0.0 1011318
9 august, mon
mon900:00+29ne8152791 0.0 1009467
03:00+28ne8162887 0.0 1008635
06:00+26ne101736100 0.0 1009695
09:00+31ne892864 0.0 10081123
12:00+33ne562720 0.1 10081479
15:00+35n5622100 0.7 10072246
18:00+34n592273 0.0 10062348
21:00+29nnw10163483 0.0 1008703